Location: Unnamed
(54.5186°N, 36.2255°E)
Time: 17:25:43
(UTC+03:00)

ISS - Pass Details

Date: 22 February 2026
Orbit: 416 x 427 km, 51.6° (Epoch: 5 March)

Event Time Altitude Azimuth Distance (km) Brightness Sun altitude
Exits shadow 07:01:01 - 265° (W) 1,650 -1.4 -6.5°
Reaches altitude 10° 07:01:24 10° 263° (W) 1,497 -1.6 -6.5°
Maximum altitude 07:04:39 48° 189° (S) 557 -3.1 -6.0°
Drops below altitude 10° 07:07:53 10° 114° (ESE) 1,493 0.7 -5.5°
Sets 07:10:01 0° 108° (ESE) 2,355 2.5 -5.2°
